Regional Weather Roundup
Issued by NWS

Home | Current Version | Previous Version | Text Only | Print | Product List | Glossary On
Versions: 1 2 3 4 5 6 7 8 9 10 11 12 13 14 15 16 17 18 19 20 21 22 23 24 25 26 27 28 29 30 31 32 33 34 35 36 37 38 39 40 41 42 43 44 45 46 47 48 49 50
000
ASUS44 KEWX 030811
RWRTX
SOUTH TEXAS REGIONAL WEATHER ROUNDUP
NATIONAL WEATHER SERVICE AUSTIN/SAN ANTONIO TX
200 AM CST SAT DEC 03 2016

NOTE: "FAIR" INDICATED FEW OR NO CLOUDS BELOW 12,000 FEET WITH NO
SIGNIFICANT WEATHER AND/OR OBSTRUCTIONS TO VISIBILITY.

* - THESE STATIONS ARE NOT NWS OR FAA STATIONS...AND ARE NOT SUBJECT
    TO NWS AND FAA QUALITY CONTROL.

TXZ171-172-183>190-030900-
TEXAS HILL COUNTRY AND EDWARDS PLATEAU

CITY           SKY/WX    TMP DP  RH WIND       PRES   REMARKS
JUNCTION       HVY RAIN  48  48 100 E12       29.97F FOG     WCI  43
*LLANO         CLOUDY    48  48 100 E7        30.03F FOG     WCI  45
BURNET         CLOUDY    48  46  93 NE14G23   30.02F FOG     WCI  42
*HORSESHOE BAY DRIZZLE   49  49  99 E7        30.01S WCI  47
*KERRVILLE     RAIN      51  50  96 E8        29.95F
*FREDERICKSBRG DRIZZLE   48  47  96 E9G18     29.98S WCI  44
*ROCKSPRINGS   RAIN      52  52 100 E9        29.94F
*BOERNE STAGE  CLOUDY    48  46  93 NE6       29.97F WCI  46
*CASTROVILLE   RAIN      53  52  99 E13       29.94F
HONDO          HVY RAIN  54  53  97 E13G23    29.92F FOG
*UVALDE        RAIN      53  52  97 NE20      29.89F
DEL RIO        RAIN      59  58  96 S6        29.92R FOG
LAUGHLIN AFB   TSTM      59  54  82 S8        29.92R
CARRIZO SPRGS  CLOUDY    55  55 100 E9G16     29.85F
*EAGLE PASS    CLOUDY    57  54  88 NE7G13    29.90S FOG
$$

TXZ173-191>194-202-209-217>225-228-030900-
CENTRAL AND SOUTH CENTRAL TEXAS

CITY           SKY/WX    TMP DP  RH WIND       PRES   REMARKS
GEORGETOWN     CLOUDY    48  46  93 N9        30.03R WCI  44
AUSTIN/BERGSTM RAIN      52  51  97 NE12      30.01R FOG
AUSTIN/MABRY   LGT RAIN  51  50  96 VRB5      30.01S FOG
*AUSTIN/EXEC   CLOUDY    50  50 100 NE10      30.03R FOG     WCI  46
*LAGO VISTA    RAIN      49  48  97 E12G18    30.01R VSB 1   WCI  44
SAN MARCOS     CLOUDY    61  50  67 NE13      29.98F
NEW BRAUNFELS  RAIN      53  51  93 NE13      29.96R FOG
RANDOLPH AFB   HVY RAIN  52  52 100 NE12      29.94F FOG
PT SAN ANTONIO RAIN      53  51  94 N7        29.92F
SAN ANTONIO    RAIN      53  51  93 NE10      29.95F
STINSON FIELD  HVY RAIN  54  51  90 N6        29.93F FOG
*PLEASANTON    CLOUDY    54  53  97 N10       29.91F
*LA GRANGE     CLOUDY    53  51  94 E6        29.95F
*GIDDINGS      LGT RAIN  50  49  96 NE8       30.02F WCI  47
*GONZALES      RAIN      55  54  99 NE7       29.95S
$$

TXZ163>164-176>182-195>201-210>213-226-227-235-030900-
SOUTHEAST TEXAS

CITY           SKY/WX    TMP DP  RH WIND       PRES   REMARKS
COLLEGE STN    CLOUDY    50  49  96 NE10      30.01F WCI  46
*BRYAN         CLOUDY    48  48 100 NE9G17    30.04F WCI  44
*CALDWELL      NOT AVBL
*CROCKETT      LGT RAIN  48  46  93 NE7       30.09F WCI  45
*BRENHAM       LGT RAIN  52  51  96 NE6       30.00F
HUNTSVILLE     LGT RAIN  49  46  90 E6        30.04F WCI  46
CONROE         CLOUDY    50  45  83 N6G18     30.02S WCI  48
HOUSTON BUSH   LGT RAIN  53  48  83 NE13      29.98F
HOUSTON HOBBY  LGT RAIN  56  53  90 NE16      29.95F
*HOUSTON SW AP CLOUDY    55  53  94 NE12G18   29.95F
PEARLAND       LGT RAIN  57  54  89 NE15      29.96F FOG
HOUSTON HOOKS  LGT RAIN  52  48  86 NE9G16    29.99F
ELLINGTON FLD  RAIN      55  54  94 NE13      29.98F
SUGAR LAND     HVY RAIN  54  53  97 NE12      29.95F FOG
*HOUSTON EXEC    N/A     54  48  82 NE14      29.98F
*CLEVELAND MUN CLOUDY    50  46  86 NE3       30.02F
*WHARTON       RAIN      55  54  96 N8        29.94F
*COLUMBUS      LGT RAIN  53  48  81 NE9       29.97F
*EAGLE LAKE    CLOUDY    57  51  79 NE13G18   29.95F
$$

TXZ214>216-236>238-030900-
THE UPPER TEXAS COAST

CITY           SKY/WX    TMP DP  RH WIND       PRES   REMARKS
*ORANGE        CLOUDY    59  41  51 E15G25    30.03S
PORT ARTHUR    CLOUDY    60  45  57 E24G33    29.98F
GALVESTON      HVY RAIN  66  65  96 NE17      29.93F FOG
ANGLETON       LGT RAIN  64  63  96 NE10      29.90F
*BAY CITY      LGT RAIN  64  64 100 NE13G18   29.89F
PALACIOS       TSTM      60  59  96 N9        29.88S FOG
$$

TXZ229>234-239>247-030900-
TEXAS COASTAL BEND AND RIO GRANDE PLAINS

CITY           SKY/WX    TMP DP  RH WIND       PRES   REMARKS
VICTORIA       CLOUDY    56  53  90 NE15G22   29.90F
*BEEVILLE      DRIZZLE   60  60 100 NE12G18   29.89F
ROCKPORT         N/A    N/A N/A N/A MISG      29.86F
*PORT ARANSAS  CLOUDY    64  64  99 N9        29.86F
*PORT LAVACA   LGT RAIN  57  57 100 N13       29.89F
*INGLESIDE     CLOUDY    65  63  93 NE18      29.86F
CORPUS CHRISTI CLOUDY    66  63  90 NE9       29.85F
CORPUS NAS     CLOUDY    67  66  97 NE12      29.85F
*ROBSTOWN      CLOUDY    66  64  91 NE10      29.85F
ALICE          LGT RAIN  64  63  96 NE9       29.85F
KINGSVILLE NAS CLOUDY    68  68 100 NE9       29.85F
COTULLA        CLOUDY    60  57  89 NE14      29.87S
*FAITH RANCH   CLOUDY    61  61 100 E14       29.85F FOG
LAREDO         NOT AVBL
$$

TXZ248>255-030900-
DEEP SOUTH TEXAS

CITY           SKY/WX    TMP DP  RH WIND       PRES   REMARKS
BROWNSVILLE    MOCLDY    76  72  87 S10       29.85S
PORT ISABEL    MOCLDY    75  73  93 S9        29.84S
*SOUTH PADRE     N/A     77  73  88 S10       29.85S
HARLINGEN      MOCLDY    75  73  93 S13       29.83S
*HEBBRONVILLE  RAIN      69  68  97 SE9G17    29.84F
MCALLEN        CLOUDY    77  71  82 SE12      29.83S
*WESLACO       MOCLDY    74  72  92 S10G16    29.83S
FALFURRIAS     CLOUDY    72  70  95 E6        29.84S
EDINBURG       CLOUDY    76  72  87 SE5       29.84S
*ZAPATA        RAIN      73  71  95 S3        29.82R
$$

TXZ213>215-236>238-242>244-246-247-251-254-255-030900-
CMAN STATIONS

STATION/POSITION TIME  TEMP    WIND        PRES    WAVE
                       AIR SEA DIR/SP/G            HT/PER
                 (UTC) (F)     (DEG/KT/KT) (MB)    (FT/S)
SABINE PASS      0748   58 64   80/ 17/ 24 1016.1
SEA RIM ST PARK  0800   58      80/ 20/ 26 1015.3
NORTH JETTY/GLS  0748   64 63   50/ 25/ 30   N/A
EAGLE POINT      0748   57 62   60/ 16/ 21 1014.3
MORGANS POINT    0748   57 65   60/ 19/ 23 1014.2
PORT O`CONNOR    0748   65     340/ 11/ 13 1011.2
PORT ARANSAS     0800   64 69  360/ 10/ 12 1010.8
MALAQUITE BEACH  0748   69 70  340/  7/  8 1011.3
BAFFIN BAY       0748   72 71   10/  4/  4 1010.7
PORT ISABEL      0748   76 76  160/  9/ 12 1010.4
$$

GMZ080-GMZ150>470-030900-
OFFSHORE BUOY REPORTS

STATION/POSITION TIME  TEMP    WIND        PRES    WAVE
                       AIR SEA DIR/SP/G            HT/PER
                 (UTC) (F)     (DEG/KT/KT) (MB)    (FT/S)
20 E GALVESTON   0750   69 68   90/ 23/ 27 1011.5    9/ 8
90 E PT ARANSAS  0750   78 77  150/ 17/ 21 1010.6    8/ 8
35 NE PT MANSFLD 0750   77 75  160/ 16/ 19 1009.8    8/ 8
200 E PT ISABEL  0750   78 80  130/ 21/ 23 1012.7    6/ 8
$$




USA.gov is the U.S. government's official web portal to all federal, state and local government web resources and services.